Tracking 29892 objects as of 21-Nov-2024
HD Live streaming from Space Station
objects crossing your sky now

BREEZE-M DEB

Track BREEZE-M DEB now!


NORAD ID: 43401
Int'l Code: 2012-026N
Perigee: 10,610.6 km
Apogee: 34,647.0 km
Inclination: 9.3 °
Period: 819.1 minutes
Semi major axis: 28999 km
RCS: Unknown
Launch date: May 17, 2012
Source: Commonwealth of Independent States (former USSR) (CIS)
Launch site: TYURATAM MISSILE AND SPACE COMPLEX (TTMTR)

Note: This is SATELLITE DEBRIS
Your satellite tracking list
Your tracking list is empty




NASA's NSSDC Master Catalog

Two Line Element Set (TLE):
1 43401U 12026N   24322.93035979 -.00000047  00000-0  00000-0 0  9993
2 43401   9.3334 188.7467 4144245 307.2594 263.2097  1.75796614 78719
Source of the keplerian elements: AFSPC